Location: Prague
(50.0830°N, 14.4670°E)
Time: 09:12:31
(UTC+01:00)

STARLINK-1617 - Pass Details

Date: 17 January 2021
Orbit: 545 x 549 km, 53.1° (Epoch: 25 February)

Event Time Altitude Azimuth Distance (km) Brightness Sun altitude
Exits shadow 06:12:24 - 218° (SW) 2,293 6.5 -15.7°
Reaches altitude 10° 06:13:40 10° 214° (SW) 1,811 6.1 -15.5°
Maximum altitude 06:17:31 40° 145° (SE) 819 4.9 -14.9°
Drops below altitude 10° 06:21:24 10° 75° (ENE) 1,821 7.2 -14.3°
Sets 06:23:43 0° 68° (ENE) 2,717 8.1 -13.9°
